INTELSAT 12 (IS-12) (26590 NORAD) Tracking and Keplerian Element Data

This shows tracking and keplerian element data for the satellite.

Feedback or suggestion? Click here.




ElementValue
Catalog26590
NameINTELSAT 12 (IS-12)
Epoch Orbit6631
Epoch Day349.34493953
Epoch Year2018
RAAN89.3687
Inclination1.666
Eccentricity0.0006218
Argument of Perigee159.9622
Mean Anonmoly3.8998
Mean Motion1.00272136
Decay Rate1.48E-06
L11 26590U 00068A 18349.34493953 .00000148 00000-0 00000+0 0 9993
L22 26590 1.6660 89.3687 0006218 159.9622 3.8998 1.00272136 66310

Live tracking and technical data element details for INTELSAT 12 (IS-12) (NORAD 26590). INTELSAT 12 (IS-12) can be tracked NOW for your location showing map with azimuth and elevation plus other details from your city location.

Track the satellite on the map from your city or location and see movement details for azimuth, elevation, latitude, longitude, range, height, and movement on the map or in text.







IsCatalogInMostPopularTable: catalog: 26590, numindb: 100
Update: records affected: 1



GetName: 26590 INTELSAT 12 (IS-12)

Hit Count: updated at: Sun, 16 Dec 2018 10:04:18 GMT